Location: Goettingen
(51.5300°N, 9.9433°E)
Time: 17:59:02
(UTC+01:00)

ISS - Pass Details

Date: 23 January 2020
Orbit: 415 x 421 km, 51.6° (Epoch: 18 January)

Event Time Altitude Azimuth Distance (km) Brightness Sun altitude
Rises 19:10:52 0° 233° (SW) 2,358 1.0 -21.1°
Reaches altitude 10° 19:13:01 10° 227° (SW) 1,495 -0.3 -21.4°
Enters shadow 19:15:21 34° 195° (SSW) 715 -2.5 -21.8°
